contact:dominique.lefevre@mio.osupytheas.fr, maurice.libes@osupytheas.fr, didier.mallarino@osupytheas.fr
Project:EMSO http://www.emso-fr.org/EMSO-France
Depth: 2436.0 m
Title:EMSO Ligure Ouest : Data MII capteur MICROCAT
DateTime_Computer,Latitude,Longitude,Temperature,Conductivity,Pressure,DateTime_Instrument
DateTime_Computer,Latitude,Longitude,degC,S m-1,dbar,DateTime_Instrument
2022-04-03T00:01:47Z,42.805,6.029,13.3025,4.60096,2469.9,2022-4-03T02:03:25Z
2022-04-03T00:04:50Z,42.805,6.029,13.3023,4.60081,2469.876,2022-4-03T02:06:28Z
2022-04-03T00:07:53Z,42.805,6.029,13.3023,4.60086,2469.876,2022-4-03T02:09:31Z
2022-04-03T00:10:57Z,42.805,6.029,13.3013,4.60072,2469.89,2022-4-03T02:12:34Z
2022-04-03T00:14:00Z,42.805,6.029,13.3019,4.60074,2469.867,2022-4-03T02:15:37Z
2022-04-03T00:17:03Z,42.805,6.029,13.3037,4.60089,2469.876,2022-4-03T02:18:40Z
2022-04-03T00:20:06Z,42.805,6.029,13.3031,4.60084,2469.876,2022-4-03T02:21:43Z
2022-04-03T00:23:09Z,42.805,6.029,13.3023,4.60096,2469.89,2022-4-03T02:24:46Z
2022-04-03T00:26:12Z,42.805,6.029,13.3024,4.60086,2469.853,2022-4-03T02:27:50Z
2022-04-03T00:29:15Z,42.805,6.029,13.3019,4.60088,2469.876,2022-4-03T02:30:53Z
2022-04-03T00:32:18Z,42.805,6.029,13.3030,4.60099,2469.876,2022-4-03T02:33:56Z
2022-04-03T00:35:21Z,42.805,6.029,13.3032,4.60094,2469.89,2022-4-03T02:36:59Z
2022-04-03T00:38:25Z,42.805,6.029,13.3024,4.60094,2469.853,2022-4-03T02:40:02Z
2022-04-03T00:41:28Z,42.805,6.029,13.3020,4.60079,2469.876,2022-4-03T02:43:05Z
2022-04-03T00:44:31Z,42.805,6.029,13.3024,4.60085,2469.853,2022-4-03T02:46:08Z
2022-04-03T00:47:34Z,42.805,6.029,13.3023,4.60077,2469.853,2022-4-03T02:49:11Z
2022-04-03T00:50:37Z,42.805,6.029,13.3015,4.60086,2469.853,2022-4-03T02:52:14Z
2022-04-03T00:53:40Z,42.805,6.029,13.3021,4.60087,2469.853,2022-4-03T02:55:18Z
2022-04-03T00:56:43Z,42.805,6.029,13.3022,4.60091,2469.853,2022-4-03T02:58:21Z
2022-04-03T00:59:46Z,42.805,6.029,13.3012,4.60102,2469.853,2022-4-03T03:01:24Z
2022-04-03T01:02:49Z,42.805,6.029,13.3022,4.60066,2469.89,2022-4-03T03:04:27Z
2022-04-03T01:05:53Z,42.805,6.029,13.3027,4.60061,2469.844,2022-4-03T03:07:30Z
2022-04-03T01:08:56Z,42.805,6.029,13.3043,4.60083,2469.853,2022-4-03T03:10:33Z
2022-04-03T01:11:59Z,42.805,6.029,13.3022,4.60067,2469.83,2022-4-03T03:13:36Z
2022-04-03T01:15:02Z,42.805,6.029,13.3018,4.60074,2469.83,2022-4-03T03:16:39Z
2022-04-03T01:18:05Z,42.805,6.029,13.3026,4.60087,2469.83,2022-4-03T03:19:42Z
2022-04-03T01:21:08Z,42.805,6.029,13.3034,4.60096,2469.83,2022-4-03T03:22:46Z
2022-04-03T01:24:11Z,42.805,6.029,13.3022,4.60066,2469.876,2022-4-03T03:25:49Z
2022-04-03T01:27:14Z,42.805,6.029,13.3024,4.60064,2469.876,2022-4-03T03:28:52Z
2022-04-03T01:30:18Z,42.805,6.029,13.3026,4.60059,2469.853,2022-4-03T03:31:55Z
2022-04-03T01:33:21Z,42.805,6.029,13.3033,4.60063,2469.853,2022-4-03T03:34:58Z
2022-04-03T01:36:24Z,42.805,6.029,13.3026,4.60067,2469.867,2022-4-03T03:38:01Z
2022-04-03T01:39:27Z,42.805,6.029,13.3014,4.60051,2469.853,2022-4-03T03:41:04Z
2022-04-03T01:42:30Z,42.805,6.029,13.3029,4.60065,2469.821,2022-4-03T03:44:07Z
2022-04-03T01:45:33Z,42.805,6.029,13.3018,4.60081,2469.806,2022-4-03T03:47:11Z
2022-04-03T01:48:36Z,42.805,6.029,13.3019,4.60085,2469.844,2022-4-03T03:50:14Z
2022-04-03T01:51:39Z,42.805,6.029,13.3034,4.60057,2469.806,2022-4-03T03:53:17Z
2022-04-03T01:54:42Z,42.805,6.029,13.3029,4.60067,2469.844,2022-4-03T03:56:20Z
2022-04-03T01:57:46Z,42.805,6.029,13.3025,4.60064,2469.821,2022-4-03T03:59:23Z
2022-04-03T02:00:49Z,42.805,6.029,13.3024,4.60045,2469.867,2022-4-03T04:02:26Z
2022-04-03T02:03:52Z,42.805,6.029,13.3031,4.60069,2469.821,2022-4-03T04:05:29Z
2022-04-03T02:06:55Z,42.805,6.029,13.3026,4.60052,2469.821,2022-4-03T04:08:32Z
2022-04-03T02:09:58Z,42.805,6.029,13.3019,4.60057,2469.83,2022-4-03T04:11:35Z
2022-04-03T02:13:01Z,42.805,6.029,13.3023,4.60056,2469.844,2022-4-03T04:14:39Z
2022-04-03T02:16:04Z,42.805,6.029,13.3022,4.60067,2469.844,2022-4-03T04:17:42Z
2022-04-03T02:19:07Z,42.805,6.029,13.3021,4.60067,2469.876,2022-4-03T04:20:45Z
2022-04-03T02:22:11Z,42.805,6.029,13.3014,4.60067,2469.821,2022-4-03T04:23:48Z
2022-04-03T02:25:14Z,42.805,6.029,13.3024,4.60061,2469.821,2022-4-03T04:26:51Z
2022-04-03T02:28:17Z,42.805,6.029,13.3032,4.60059,2469.821,2022-4-03T04:29:54Z
2022-04-03T02:31:20Z,42.805,6.029,13.3033,4.60095,2469.806,2022-4-03T04:32:57Z
2022-04-03T02:34:23Z,42.805,6.029,13.3026,4.60104,2469.83,2022-4-03T04:36:00Z
2022-04-03T02:37:26Z,42.805,6.029,13.3026,4.60110,2469.821,2022-4-03T04:39:04Z
2022-04-03T02:40:29Z,42.805,6.029,13.3027,4.60107,2469.806,2022-4-03T04:42:07Z
2022-04-03T02:43:32Z,42.805,6.029,13.3015,4.60078,2469.806,2022-4-03T04:45:10Z
2022-04-03T02:46:35Z,42.805,6.029,13.3034,4.60067,2469.853,2022-4-03T04:48:13Z
2022-04-03T02:49:39Z,42.805,6.029,13.3027,4.60058,2469.867,2022-4-03T04:51:16Z
2022-04-03T02:52:42Z,42.805,6.029,13.3021,4.60089,2469.821,2022-4-03T04:54:19Z
2022-04-03T02:55:45Z,42.805,6.029,13.3023,4.60110,2469.844,2022-4-03T04:57:22Z
2022-04-03T02:58:48Z,42.805,6.029,13.3014,4.60069,2469.853,2022-4-03T05:00:25Z
2022-04-03T03:01:51Z,42.805,6.029,13.3029,4.60092,2469.806,2022-4-03T05:03:28Z
2022-04-03T03:04:54Z,42.805,6.029,13.3029,4.60110,2469.806,2022-4-03T05:06:32Z
2022-04-03T03:07:57Z,42.805,6.029,13.3033,4.60110,2469.867,2022-4-03T05:09:35Z
2022-04-03T03:11:00Z,42.805,6.029,13.3026,4.60094,2469.806,2022-4-03T05:12:38Z
2022-04-03T03:14:04Z,42.805,6.029,13.3024,4.60079,2469.783,2022-4-03T05:15:41Z
2022-04-03T03:17:07Z,42.805,6.029,13.3029,4.60092,2469.844,2022-4-03T05:18:44Z
2022-04-03T03:20:10Z,42.805,6.029,13.3029,4.60069,2469.844,2022-4-03T05:21:47Z
2022-04-03T03:23:13Z,42.805,6.029,13.3013,4.60081,2469.844,2022-4-03T05:24:50Z
2022-04-03T03:26:16Z,42.805,6.029,13.3032,4.60097,2469.821,2022-4-03T05:27:53Z
2022-04-03T03:29:19Z,42.805,6.029,13.3014,4.60097,2469.844,2022-4-03T05:30:56Z
2022-04-03T03:32:22Z,42.805,6.029,13.3034,4.60102,2469.83,2022-4-03T05:34:00Z
2022-04-03T03:35:25Z,42.805,6.029,13.3020,4.60079,2469.806,2022-4-03T05:37:03Z
2022-04-03T03:38:28Z,42.805,6.029,13.3020,4.60097,2469.853,2022-4-03T05:40:06Z
2022-04-03T03:41:32Z,42.805,6.029,13.3014,4.60099,2469.821,2022-4-03T05:43:09Z
2022-04-03T03:44:35Z,42.805,6.029,13.3015,4.60086,2469.876,2022-4-03T05:46:12Z
2022-04-03T03:47:38Z,42.805,6.029,13.3019,4.60096,2469.844,2022-4-03T05:49:15Z
2022-04-03T03:50:41Z,42.805,6.029,13.3029,4.60062,2469.867,2022-4-03T05:52:18Z
2022-04-03T03:53:44Z,42.805,6.029,13.3031,4.60098,2469.853,2022-4-03T05:55:21Z
2022-04-03T03:56:47Z,42.805,6.029,13.3025,4.60111,2469.853,2022-4-03T05:58:25Z
2022-04-03T03:59:50Z,42.805,6.029,13.3034,4.60101,2469.83,2022-4-03T06:01:28Z
2022-04-03T04:02:53Z,42.805,6.029,13.3011,4.60101,2469.853,2022-4-03T06:04:31Z
2022-04-03T04:05:56Z,42.805,6.029,13.3026,4.60110,2469.844,2022-4-03T06:07:34Z
2022-04-03T04:09:00Z,42.805,6.029,13.3022,4.60090,2469.83,2022-4-03T06:10:37Z
2022-04-03T04:12:03Z,42.805,6.029,13.3023,4.60096,2469.83,2022-4-03T06:13:40Z
2022-04-03T04:15:06Z,42.805,6.029,13.3019,4.60110,2469.89,2022-4-03T06:16:43Z
2022-04-03T04:18:09Z,42.805,6.029,13.3043,4.60125,2469.853,2022-4-03T06:19:46Z
2022-04-03T04:21:12Z,42.805,6.029,13.3033,4.60104,2469.867,2022-4-03T06:22:49Z
2022-04-03T04:24:15Z,42.805,6.029,13.3024,4.60066,2469.83,2022-4-03T06:25:53Z
2022-04-03T04:27:18Z,42.805,6.029,13.3043,4.60110,2469.853,2022-4-03T06:28:56Z
2022-04-03T04:30:21Z,42.805,6.029,13.3013,4.60091,2469.853,2022-4-03T06:31:59Z
2022-04-03T04:33:25Z,42.805,6.029,13.3030,4.60069,2469.853,2022-4-03T06:35:02Z
2022-04-03T04:36:28Z,42.805,6.029,13.3014,4.60087,2469.9,2022-4-03T06:38:05Z
2022-04-03T04:39:31Z,42.805,6.029,13.3038,4.60068,2469.89,2022-4-03T06:41:08Z
2022-04-03T04:42:34Z,42.805,6.029,13.3023,4.60092,2469.867,2022-4-03T06:44:11Z
2022-04-03T04:45:37Z,42.805,6.029,13.3013,4.60095,2469.876,2022-4-03T06:47:14Z
2022-04-03T04:48:40Z,42.805,6.029,13.3025,4.60102,2469.867,2022-4-03T06:50:17Z
2022-04-03T04:51:43Z,42.805,6.029,13.3036,4.60102,2469.9,2022-4-03T06:53:21Z
2022-04-03T04:54:46Z,42.805,6.029,13.3022,4.60113,2469.876,2022-4-03T06:56:24Z
2022-04-03T04:57:49Z,42.805,6.029,13.3032,4.60060,2469.876,2022-4-03T06:59:27Z
2022-04-03T05:00:53Z,42.805,6.029,13.3028,4.60055,2469.89,2022-4-03T07:02:30Z
2022-04-03T05:03:56Z,42.805,6.029,13.3014,4.60064,2469.914,2022-4-03T07:05:33Z
2022-04-03T05:06:59Z,42.805,6.029,13.3024,4.60090,2469.876,2022-4-03T07:08:36Z
2022-04-03T05:10:02Z,42.805,6.029,13.3033,4.60090,2469.923,2022-4-03T07:11:39Z
2022-04-03T05:13:05Z,42.805,6.029,13.3034,4.60092,2469.914,2022-4-03T07:14:42Z
2022-04-03T05:16:08Z,42.805,6.029,13.3024,4.60068,2469.9,2022-4-03T07:17:46Z
2022-04-03T05:19:11Z,42.805,6.029,13.3026,4.60046,2469.937,2022-4-03T07:20:49Z
2022-04-03T05:22:14Z,42.805,6.029,13.3018,4.60042,2469.923,2022-4-03T07:23:52Z
2022-04-03T05:25:17Z,42.805,6.029,13.3030,4.60067,2469.937,2022-4-03T07:26:55Z
2022-04-03T05:28:21Z,42.805,6.029,13.3032,4.60069,2469.947,2022-4-03T07:29:58Z
2022-04-03T05:31:24Z,42.805,6.029,13.3014,4.60063,2469.937,2022-4-03T07:33:01Z
2022-04-03T05:34:27Z,42.805,6.029,13.3024,4.60046,2469.96,2022-4-03T07:36:04Z
2022-04-03T05:37:30Z,42.805,6.029,13.3016,4.60054,2469.96,2022-4-03T07:39:07Z
2022-04-03T05:40:33Z,42.805,6.029,13.3017,4.60062,2469.947,2022-4-03T07:42:10Z
2022-04-03T05:43:36Z,42.805,6.029,13.3018,4.60043,2469.984,2022-4-03T07:45:14Z
2022-04-03T05:46:39Z,42.805,6.029,13.3015,4.60044,2469.96,2022-4-03T07:48:17Z
2022-04-03T05:49:42Z,42.805,6.029,13.3024,4.60062,2469.97,2022-4-03T07:51:20Z
2022-04-03T05:52:46Z,42.805,6.029,13.3011,4.60075,2469.96,2022-4-03T07:54:23Z
2022-04-03T05:55:49Z,42.805,6.029,13.3035,4.60058,2469.984,2022-4-03T07:57:26Z
2022-04-03T05:58:52Z,42.805,6.029,13.3009,4.60053,2469.984,2022-4-03T08:00:29Z
2022-04-03T06:01:55Z,42.805,6.029,13.3018,4.60079,2469.947,2022-4-03T08:03:32Z
2022-04-03T06:04:58Z,42.805,6.029,13.3024,4.60043,2469.947,2022-4-03T08:06:35Z
2022-04-03T06:08:01Z,42.805,6.029,13.3015,4.60065,2469.947,2022-4-03T08:09:39Z
2022-04-03T06:11:04Z,42.805,6.029,13.3015,4.60052,2469.993,2022-4-03T08:12:42Z
2022-04-03T06:14:07Z,42.805,6.029,13.3019,4.60055,2469.993,2022-4-03T08:15:45Z
2022-04-03T06:17:10Z,42.805,6.029,13.3011,4.60052,2470.03,2022-4-03T08:18:48Z
2022-04-03T06:20:14Z,42.805,6.029,13.3025,4.60081,2470.017,2022-4-03T08:21:51Z
2022-04-03T06:23:17Z,42.805,6.029,13.3019,4.60087,2470.007,2022-4-03T08:24:54Z
2022-04-03T06:26:20Z,42.805,6.029,13.3013,4.60071,2470.04,2022-4-03T08:27:57Z
2022-04-03T06:29:23Z,42.805,6.029,13.3028,4.60059,2470.007,2022-4-03T08:31:00Z
2022-04-03T06:32:26Z,42.805,6.029,13.3023,4.60070,2470.017,2022-4-03T08:34:03Z
2022-04-03T06:35:29Z,42.805,6.029,13.3024,4.60075,2470.053,2022-4-03T08:37:07Z
2022-04-03T06:38:32Z,42.805,6.029,13.3011,4.60088,2470.017,2022-4-03T08:40:10Z
2022-04-03T06:41:35Z,42.805,6.029,13.3030,4.60077,2470.053,2022-4-03T08:43:13Z
2022-04-03T06:44:38Z,42.805,6.029,13.3023,4.60049,2470.053,2022-4-03T08:46:16Z
2022-04-03T06:47:42Z,42.805,6.029,13.3017,4.60051,2470.04,2022-4-03T08:49:19Z
2022-04-03T06:50:45Z,42.805,6.029,13.3015,4.60050,2470.063,2022-4-03T08:52:22Z
2022-04-03T06:53:48Z,42.805,6.029,13.3026,4.60069,2470.063,2022-4-03T08:55:25Z
2022-04-03T06:56:51Z,42.805,6.029,13.3018,4.60097,2470.063,2022-4-03T08:58:28Z
2022-04-03T06:59:54Z,42.805,6.029,13.3019,4.60078,2470.053,2022-4-03T09:01:32Z
2022-04-03T07:02:57Z,42.805,6.029,13.3025,4.60084,2470.063,2022-4-03T09:04:35Z
2022-04-03T07:06:00Z,42.805,6.029,13.3021,4.60063,2470.087,2022-4-03T09:07:38Z
2022-04-03T07:09:03Z,42.805,6.029,13.3020,4.60062,2470.077,2022-4-03T09:10:41Z
2022-04-03T07:12:07Z,42.805,6.029,13.3010,4.60057,2470.053,2022-4-03T09:13:44Z
2022-04-03T07:15:10Z,42.805,6.029,13.3018,4.60096,2470.087,2022-4-03T09:16:47Z
2022-04-03T07:18:13Z,42.805,6.029,13.3011,4.60067,2470.063,2022-4-03T09:19:50Z
2022-04-03T07:21:16Z,42.805,6.029,13.3018,4.60077,2470.077,2022-4-03T09:22:53Z
2022-04-03T07:24:19Z,42.805,6.029,13.3015,4.60074,2470.063,2022-4-03T09:25:56Z
2022-04-03T07:27:22Z,42.805,6.029,13.3044,4.60096,2470.077,2022-4-03T09:29:00Z
2022-04-03T07:30:25Z,42.805,6.029,13.3035,4.60104,2470.1,2022-4-03T09:32:03Z
2022-04-03T07:33:28Z,42.805,6.029,13.3020,4.60099,2470.063,2022-4-03T09:35:06Z
2022-04-03T07:36:31Z,42.805,6.029,13.3031,4.60050,2470.073,2022-4-03T09:38:09Z
2022-04-03T07:39:35Z,42.805,6.029,13.3024,4.60079,2470.077,2022-4-03T09:41:12Z
2022-04-03T07:42:38Z,42.805,6.029,13.3026,4.60099,2470.087,2022-4-03T09:44:15Z
2022-04-03T07:45:41Z,42.805,6.029,13.3036,4.60101,2470.077,2022-4-03T09:47:18Z
2022-04-03T07:48:44Z,42.805,6.029,13.3035,4.60064,2470.133,2022-4-03T09:50:21Z
2022-04-03T07:51:47Z,42.805,6.029,13.3033,4.60081,2470.063,2022-4-03T09:53:24Z
2022-04-03T07:54:50Z,42.805,6.029,13.3034,4.60077,2470.087,2022-4-03T09:56:28Z
2022-04-03T07:57:53Z,42.805,6.029,13.3021,4.60069,2470.1,2022-4-03T09:59:31Z
2022-04-03T08:00:56Z,42.805,6.029,13.3021,4.60064,2470.063,2022-4-03T10:02:34Z
2022-04-03T08:03:59Z,42.805,6.029,13.3012,4.60072,2470.133,2022-4-03T10:05:37Z
2022-04-03T08:07:03Z,42.805,6.029,13.3019,4.60052,2470.11,2022-4-03T10:08:40Z
2022-04-03T08:10:06Z,42.805,6.029,13.3026,4.60075,2470.1,2022-4-03T10:11:43Z
2022-04-03T08:13:09Z,42.805,6.029,13.3020,4.60086,2470.124,2022-4-03T10:14:46Z
2022-04-03T08:16:12Z,42.805,6.029,13.3017,4.60095,2470.087,2022-4-03T10:17:49Z
2022-04-03T08:19:15Z,42.805,6.029,13.3014,4.60056,2470.11,2022-4-03T10:20:53Z
2022-04-03T08:22:18Z,42.805,6.029,13.3022,4.60088,2470.11,2022-4-03T10:23:56Z
2022-04-03T08:25:21Z,42.805,6.029,13.3026,4.60087,2470.073,2022-4-03T10:26:59Z
2022-04-03T08:28:24Z,42.805,6.029,13.3022,4.60089,2470.147,2022-4-03T10:30:02Z
2022-04-03T08:31:28Z,42.805,6.029,13.3013,4.60102,2470.124,2022-4-03T10:33:05Z
2022-04-03T08:34:31Z,42.805,6.029,13.3015,4.60099,2470.11,2022-4-03T10:36:08Z
2022-04-03T08:37:34Z,42.805,6.029,13.3020,4.60100,2470.1,2022-4-03T10:39:11Z
2022-04-03T08:40:37Z,42.805,6.029,13.3031,4.60067,2470.124,2022-4-03T10:42:14Z
2022-04-03T08:43:40Z,42.805,6.029,13.3019,4.60068,2470.1,2022-4-03T10:45:18Z
2022-04-03T08:46:43Z,42.805,6.029,13.3012,4.60081,2470.1,2022-4-03T10:48:21Z
2022-04-03T08:49:46Z,42.805,6.029,13.3024,4.60088,2470.133,2022-4-03T10:51:24Z
2022-04-03T08:52:49Z,42.805,6.029,13.3030,4.60100,2470.124,2022-4-03T10:54:27Z
2022-04-03T08:55:53Z,42.805,6.029,13.3011,4.60084,2470.087,2022-4-03T10:57:30Z
2022-04-03T08:58:56Z,42.805,6.029,13.3033,4.60102,2470.087,2022-4-03T11:00:33Z
2022-04-03T09:01:59Z,42.805,6.029,13.3034,4.60082,2470.087,2022-4-03T11:03:36Z
2022-04-03T09:05:02Z,42.805,6.029,13.3031,4.60103,2470.087,2022-4-03T11:06:39Z
2022-04-03T09:08:05Z,42.805,6.029,13.3026,4.60073,2470.11,2022-4-03T11:09:42Z
2022-04-03T09:11:08Z,42.805,6.029,13.3024,4.60087,2470.124,2022-4-03T11:12:46Z
2022-04-03T09:14:11Z,42.805,6.029,13.3024,4.60079,2470.087,2022-4-03T11:15:49Z
2022-04-03T09:17:14Z,42.805,6.029,13.3032,4.60102,2470.087,2022-4-03T11:18:52Z
2022-04-03T09:20:18Z,42.805,6.029,13.3021,4.60074,2470.087,2022-4-03T11:21:55Z
2022-04-03T09:23:21Z,42.805,6.029,13.3008,4.60069,2470.124,2022-4-03T11:24:58Z
2022-04-03T09:26:24Z,42.805,6.029,13.3035,4.60062,2470.1,2022-4-03T11:28:01Z
2022-04-03T09:29:27Z,42.805,6.029,13.3026,4.60081,2470.063,2022-4-03T11:31:04Z
2022-04-03T09:32:30Z,42.805,6.029,13.3019,4.60063,2470.11,2022-4-03T11:34:07Z
2022-04-03T09:35:33Z,42.805,6.029,13.3011,4.60074,2470.087,2022-4-03T11:37:11Z
2022-04-03T09:38:36Z,42.805,6.029,13.3015,4.60088,2470.124,2022-4-03T11:40:14Z
2022-04-03T09:41:39Z,42.805,6.029,13.3029,4.60095,2470.073,2022-4-03T11:43:17Z
2022-04-03T09:44:42Z,42.805,6.029,13.3021,4.60084,2470.087,2022-4-03T11:46:20Z
2022-04-03T09:47:46Z,42.805,6.029,13.3029,4.60084,2470.087,2022-4-03T11:49:23Z
2022-04-03T09:50:49Z,42.805,6.029,13.3021,4.60074,2470.087,2022-4-03T11:52:26Z
2022-04-03T09:53:52Z,42.805,6.029,13.3016,4.60087,2470.087,2022-4-03T11:55:29Z
2022-04-03T09:56:55Z,42.805,6.029,13.3039,4.60087,2470.087,2022-4-03T11:58:32Z
2022-04-03T09:59:58Z,42.805,6.029,13.3023,4.60119,2470.063,2022-4-03T12:01:36Z
2022-04-03T10:03:01Z,42.805,6.029,13.3021,4.60107,2470.087,2022-4-03T12:04:39Z
2022-04-03T10:06:04Z,42.805,6.029,13.3033,4.60108,2470.087,2022-4-03T12:07:42Z
2022-04-03T10:09:07Z,42.805,6.029,13.3019,4.60082,2470.087,2022-4-03T12:10:45Z
2022-04-03T10:12:11Z,42.805,6.029,13.3036,4.60104,2470.077,2022-4-03T12:13:48Z
2022-04-03T10:15:14Z,42.805,6.029,13.3026,4.60092,2470.124,2022-4-03T12:16:51Z
2022-04-03T10:18:17Z,42.805,6.029,13.3021,4.60078,2470.087,2022-4-03T12:19:54Z
2022-04-03T10:21:20Z,42.805,6.029,13.3007,4.60062,2470.1,2022-4-03T12:22:57Z
2022-04-03T10:24:23Z,42.805,6.029,13.3025,4.60106,2470.1,2022-4-03T12:26:01Z
2022-04-03T10:27:26Z,42.805,6.029,13.3026,4.60110,2470.1,2022-4-03T12:29:04Z
2022-04-03T10:30:29Z,42.805,6.029,13.3039,4.60108,2470.077,2022-4-03T12:32:07Z
2022-04-03T10:33:32Z,42.805,6.029,13.3017,4.60067,2470.1,2022-4-03T12:35:10Z
2022-04-03T10:36:36Z,42.805,6.029,13.3011,4.60067,2470.1,2022-4-03T12:38:13Z
2022-04-03T10:39:39Z,42.805,6.029,13.3016,4.60094,2470.1,2022-4-03T12:41:16Z
2022-04-03T10:42:42Z,42.805,6.029,13.3054,4.60080,2470.063,2022-4-03T12:44:19Z
2022-04-03T10:45:45Z,42.805,6.029,13.3016,4.60080,2470.053,2022-4-03T12:47:22Z
2022-04-03T10:48:48Z,42.805,6.029,13.3014,4.60072,2470.063,2022-4-03T12:50:25Z
2022-04-03T10:51:51Z,42.805,6.029,13.3018,4.60077,2470.053,2022-4-03T12:53:29Z
2022-04-03T10:54:54Z,42.805,6.029,13.3021,4.60097,2470.049,2022-4-03T12:56:32Z
2022-04-03T10:57:57Z,42.805,6.029,13.3029,4.60099,2470.053,2022-4-03T12:59:35Z
2022-04-03T11:01:01Z,42.805,6.029,13.3021,4.60110,2470.04,2022-4-03T13:02:38Z
2022-04-03T11:04:04Z,42.805,6.029,13.3019,4.60099,2470.077,2022-4-03T13:05:41Z
2022-04-03T11:07:07Z,42.805,6.029,13.3024,4.60098,2470.087,2022-4-03T13:08:44Z
2022-04-03T11:10:10Z,42.805,6.029,13.3018,4.60082,2470.053,2022-4-03T13:11:47Z
2022-04-03T11:13:13Z,42.805,6.029,13.3024,4.60095,2470.077,2022-4-03T13:14:50Z
2022-04-03T11:16:16Z,42.805,6.029,13.3009,4.60094,2470.053,2022-4-03T13:17:54Z
2022-04-03T11:19:19Z,42.805,6.029,13.3025,4.60074,2470.04,2022-4-03T13:20:57Z
2022-04-03T11:22:22Z,42.805,6.029,13.3041,4.60064,2470.04,2022-4-03T13:24:00Z
2022-04-03T11:25:26Z,42.805,6.029,13.3009,4.60068,2470.077,2022-4-03T13:27:03Z
2022-04-03T11:28:29Z,42.805,6.029,13.3015,4.60096,2470.077,2022-4-03T13:30:06Z
2022-04-03T11:31:32Z,42.805,6.029,13.3007,4.60067,2470.04,2022-4-03T13:33:09Z
2022-04-03T11:34:35Z,42.805,6.029,13.3014,4.60103,2470.04,2022-4-03T13:36:12Z
2022-04-03T11:37:38Z,42.805,6.029,13.3021,4.60114,2470.053,2022-4-03T13:39:15Z
2022-04-03T11:40:41Z,42.805,6.029,13.3036,4.60108,2470.053,2022-4-03T13:42:19Z
2022-04-03T11:43:44Z,42.805,6.029,13.3052,4.60098,2470.063,2022-4-03T13:45:22Z
2022-04-03T11:46:47Z,42.805,6.029,13.3024,4.60102,2470.04,2022-4-03T13:48:25Z
2022-04-03T11:49:50Z,42.805,6.029,13.3029,4.60107,2470.063,2022-4-03T13:51:28Z
2022-04-03T11:52:54Z,42.805,6.029,13.3030,4.60143,2470.03,2022-4-03T13:54:31Z
2022-04-03T11:55:57Z,42.805,6.029,13.3020,4.60107,2470.03,2022-4-03T13:57:34Z
2022-04-03T11:59:00Z,42.805,6.029,13.3041,4.60117,2470.04,2022-4-03T14:00:37Z
2022-04-03T12:02:03Z,42.805,6.029,13.3038,4.60114,2470.017,2022-4-03T14:03:40Z
2022-04-03T12:05:06Z,42.805,6.029,13.3066,4.60112,2470.053,2022-4-03T14:06:44Z
2022-04-03T12:08:09Z,42.805,6.029,13.3056,4.60135,2470.04,2022-4-03T14:09:47Z
2022-04-03T12:11:12Z,42.805,6.029,13.3049,4.60120,2470.04,2022-4-03T14:12:50Z
2022-04-03T12:14:15Z,42.805,6.029,13.3043,4.60117,2470.053,2022-4-03T14:15:53Z
2022-04-03T12:17:19Z,42.805,6.029,13.3057,4.60115,2470.04,2022-4-03T14:18:56Z
2022-04-03T12:20:22Z,42.805,6.029,13.3047,4.60067,2470.03,2022-4-03T14:21:59Z
2022-04-03T12:23:25Z,42.805,6.029,13.3034,4.60077,2470.03,2022-4-03T14:25:02Z
2022-04-03T12:26:28Z,42.805,6.029,13.3026,4.60095,2470.04,2022-4-03T14:28:05Z
2022-04-03T12:29:31Z,42.805,6.029,13.3040,4.60114,2470.03,2022-4-03T14:31:08Z
2022-04-03T12:32:34Z,42.805,6.029,13.3027,4.60090,2470.04,2022-4-03T14:34:12Z
2022-04-03T12:35:37Z,42.805,6.029,13.3022,4.60110,2470.04,2022-4-03T14:37:15Z
2022-04-03T12:38:40Z,42.805,6.029,13.3020,4.60087,2470.04,2022-4-03T14:40:18Z
2022-04-03T12:41:44Z,42.805,6.029,13.3039,4.60099,2470.03,2022-4-03T14:43:21Z
2022-04-03T12:44:47Z,42.805,6.029,13.3030,4.60110,2470.04,2022-4-03T14:46:24Z
2022-04-03T12:47:50Z,42.805,6.029,13.3027,4.60105,2470.04,2022-4-03T14:49:27Z
2022-04-03T12:50:53Z,42.805,6.029,13.3013,4.60093,2470.03,2022-4-03T14:52:30Z
2022-04-03T12:53:56Z,42.805,6.029,13.3012,4.60087,2470.04,2022-4-03T14:55:33Z
2022-04-03T12:56:59Z,42.805,6.029,13.3021,4.60109,2470.017,2022-4-03T14:58:37Z
2022-04-03T13:00:02Z,42.805,6.029,13.3043,4.60092,2470.03,2022-4-03T15:01:40Z
2022-04-03T13:03:05Z,42.805,6.029,13.3040,4.60083,2470.053,2022-4-03T15:04:43Z
2022-04-03T13:06:09Z,42.805,6.029,13.3038,4.60110,2470.03,2022-4-03T15:07:46Z
2022-04-03T13:09:12Z,42.805,6.029,13.3034,4.60086,2470.03,2022-4-03T15:10:49Z
2022-04-03T13:12:15Z,42.805,6.029,13.3021,4.60082,2470.04,2022-4-03T15:13:52Z
2022-04-03T13:15:18Z,42.805,6.029,13.3021,4.60103,2470.017,2022-4-03T15:16:55Z
2022-04-03T13:18:21Z,42.805,6.029,13.3019,4.60109,2470.053,2022-4-03T15:19:58Z
2022-04-03T13:21:24Z,42.805,6.029,13.3034,4.60107,2470.03,2022-4-03T15:23:02Z
2022-04-03T13:24:27Z,42.805,6.029,13.3022,4.60077,2470.017,2022-4-03T15:26:05Z
2022-04-03T13:27:30Z,42.805,6.029,13.3045,4.60137,2470.03,2022-4-03T15:29:08Z
2022-04-03T13:30:33Z,42.805,6.029,13.3036,4.60114,2470.053,2022-4-03T15:32:11Z
2022-04-03T13:33:37Z,42.805,6.029,13.3045,4.60121,2470.017,2022-4-03T15:35:14Z
2022-04-03T13:36:40Z,42.805,6.029,13.3023,4.60114,2470.03,2022-4-03T15:38:17Z
2022-04-03T13:39:43Z,42.805,6.029,13.3053,4.60119,2470.053,2022-4-03T15:41:20Z
2022-04-03T13:42:46Z,42.805,6.029,13.3048,4.60090,2470.007,2022-4-03T15:44:23Z
2022-04-03T13:45:49Z,42.805,6.029,13.3037,4.60087,2470.053,2022-4-03T15:47:27Z
2022-04-03T13:48:52Z,42.805,6.029,13.3026,4.60117,2470.017,2022-4-03T15:50:30Z
2022-04-03T13:51:55Z,42.805,6.029,13.3024,4.60111,2469.993,2022-4-03T15:53:33Z
2022-04-03T13:54:58Z,42.805,6.029,13.3036,4.60102,2470.053,2022-4-03T15:56:36Z
2022-04-03T13:58:02Z,42.805,6.029,13.3042,4.60112,2470.007,2022-4-03T15:59:39Z
2022-04-03T14:01:05Z,42.805,6.029,13.3036,4.60119,2470.017,2022-4-03T16:02:42Z
2022-04-03T14:04:08Z,42.805,6.029,13.3027,4.60108,2470.03,2022-4-03T16:05:45Z
2022-04-03T14:07:11Z,42.805,6.029,13.3048,4.60102,2469.993,2022-4-03T16:08:48Z
2022-04-03T14:10:14Z,42.805,6.029,13.3031,4.60115,2470.053,2022-4-03T16:11:52Z
2022-04-03T14:13:17Z,42.805,6.029,13.3038,4.60119,2470.04,2022-4-03T16:14:55Z
2022-04-03T14:16:20Z,42.805,6.029,13.3036,4.60114,2470.03,2022-4-03T16:17:58Z
2022-04-03T14:19:23Z,42.805,6.029,13.3006,4.60068,2470.04,2022-4-03T16:21:01Z
2022-04-03T14:22:27Z,42.805,6.029,13.3023,4.60074,2469.993,2022-4-03T16:24:04Z
2022-04-03T14:25:30Z,42.805,6.029,13.3034,4.60104,2470.017,2022-4-03T16:27:07Z
2022-04-03T14:28:33Z,42.805,6.029,13.3031,4.60122,2470.017,2022-4-03T16:30:10Z
2022-04-03T14:31:36Z,42.805,6.029,13.3023,4.60078,2470.03,2022-4-03T16:33:13Z
2022-04-03T14:34:39Z,42.805,6.029,13.3038,4.60101,2470.017,2022-4-03T16:36:16Z
2022-04-03T14:37:42Z,42.805,6.029,13.3038,4.60097,2470.007,2022-4-03T16:39:20Z
2022-04-03T14:40:45Z,42.805,6.029,13.3023,4.60115,2470.03,2022-4-03T16:42:23Z
2022-04-03T14:43:48Z,42.805,6.029,13.3009,4.60064,2469.993,2022-4-03T16:45:26Z
2022-04-03T14:46:52Z,42.805,6.029,13.3010,4.60075,2470.053,2022-4-03T16:48:29Z
2022-04-03T14:49:55Z,42.805,6.029,13.3026,4.60119,2470.017,2022-4-03T16:51:32Z
2022-04-03T14:52:58Z,42.805,6.029,13.3034,4.60112,2470.03,2022-4-03T16:54:35Z
2022-04-03T14:56:01Z,42.805,6.029,13.3033,4.60107,2470.053,2022-4-03T16:57:38Z
2022-04-03T14:59:04Z,42.805,6.029,13.3047,4.60111,2470.017,2022-4-03T17:00:41Z
2022-04-03T15:02:07Z,42.805,6.029,13.3034,4.60122,2470.017,2022-4-03T17:03:45Z
2022-04-03T15:05:10Z,42.805,6.029,13.3039,4.60104,2470.053,2022-4-03T17:06:48Z
2022-04-03T15:08:13Z,42.805,6.029,13.3031,4.60078,2470.017,2022-4-03T17:09:51Z
2022-04-03T15:11:16Z,42.805,6.029,13.3035,4.60116,2470.017,2022-4-03T17:12:54Z
2022-04-03T15:14:20Z,42.805,6.029,13.3028,4.60137,2470.04,2022-4-03T17:15:57Z